COSMOS 2251 DEB

Satellite information

Favourite Embed

Satellite Type and Status

DEBRISIN ORBIT

Key statistics

Satellite COSMOS 2251 DEB at a glance.

Uptime

11649

Days in orbit

Revolutions

≈ 14.4

Per day

Orbit

LEO

Low Earth Orbit

Inclination

74.0

Latest

Satellite identification and parameters

Extended collection of information and parameters for COSMOS 2251 DEB.

Object identification

Identified? True

Debris? True

Object name: COSMOS 2251 DEB

International designator: 1993-036AWF

Object number (NORAD): 35989

Object ID (CCSDS): 35989

Country: COMMONWEALTH OF INDEPENDENT STATES (CIS)

Current information (Y/N): Y

RCS size: SMALL

Orbital parameters

Period: 100.224 minutes

Inclination: 74.0373 deg

SMA: 7147.303 km

Apoapsis: 784.734 km

Periapsis: 753.602 km

RAAN: 329.928 deg

Eccentricy: 0.0021779

Argument of periapsis: 110.4173 deg

Mean anomaly: 249.9322 deg

Mean motion: 14.36777429 rev/day

Mean motion (dot): 0.00000762 rev/day2

B* drag term: 0.00026638 1/REarth

Two-line elements (TLE)

Creation date: May 6, 2025, 3:54 a.m.

Reference frame: TEME

Reference center: EARTH

Epoch: May 5, 2025, 8:04 p.m. UTC

TLE line 0: 0 COSMOS 2251 DEB

TLE line 1: 1 35989U 93036AWF 25125.83650683 .00000762 00000-0 26638-3 0 9992

TLE line 2: 2 35989 74.0373 329.9280 0021779 110.4173 249.9322 14.36777429840065

Live tracking on map

Real-time ground track for satellite COSMOS 2251 DEB.

In-orbit conjunctions

A list of the most updated potential collisions computed for object COSMOS 2251 DEB.

Target Orbit TCA Probability of collision Miss distance Type
CZ-6A DEB LEO 2025-03-02 20:38:45 0.0001519767 656.0 (m) DEBRIS
RITE TARGET 1 SSO 2024-09-28 16:32:58 0.0003253983 130.0 (m) PAYLOAD
COSMOS 2298 DEB LEO 2024-05-29 21:27:18 0.0001841046 42.0 (m) DEBRIS
CZ-6 R/B LEO 2024-05-28 17:07:00 0.0004663977 79.0 (m) ROCKET BODY

Associated space launch

Military communications satellite. Destroyed in a collision with Iridium 33.

COSMOS 2251 DEB was lifted into orbit during the mission ‘Kosmos-3M | Strela-2M 51’, on board a Kosmos-3M space rocket.

The launch took place on June 16, 1993, 4:17 a.m. from 132/1 (132L).

For more information about the launch, click the button.

Launch to space Kosmos-3M | Strela-2M 51
Kosmos-3M | Strela-2M 51

Agency: N/A

Status: Launch Successful

Launch date: June 16, 1993, 4:17 a.m. UTC

Rocket: Kosmos-3M

Launch pad: 132/1 (132L)

Location: Plesetsk Cosmodrome, Russian Federation

...

Latest news about this satellite

There are no fresh news available about this satellite. Check back as we update our databases every day.


Newsletter sign-up

Weekly statistics, charts and insights to help you stay on top of the space industry.